Regional Weather Roundup
Issued by NWS

Home | Current Version | Previous Version | Text Only | Print | Product List | Glossary On
Versions: 1 2 3 4 5 6 7 8 9 10 11 12 13 14 15 16 17 18 19 20 21 22 23 24 25 26 27 28 29 30 31 32 33 34 35 36 37 38 39 40 41 42 43 44 45 46 47 48 49 50
000
ASUS43 KMPX 011001
RWRMN
WEATHER ROUNDUP FOR MINNESOTA
NATIONAL WEATHER SERVICE TWIN CITIES/CHANHASSEN MN
500 AM CDT TUE SEP 01 2015


NOTE: "FAIR" INDICATES FEW OR NO CLOUDS BELOW 12,000 FEET WITH NO
SIGNIFICANT WEATHER AND/OR OBSTRUCTIONS TO VISIBILITY. N/A MEANS
CURRENT SKY AND/OR WEATHER CONDITIONS ARE NOT AVAILABLE.

MNZ060>063-068>070-011100-
   Twin Cities Metro

CITY           SKY/WX    TMP DP  RH WIND       PRES   REMARKS
TWIN CITIES    PTCLDY    73  66  78 S7        29.90F
ST PAUL        PTCLDY    69  68  96 SE6       29.91F FOG
CRYSTAL        PTCLDY    73  67  81 S5        29.88F
BLAINE         MOCLDY    72  70  94 S6        29.90S
LAKEVILLE      PTCLDY    64  64 100 CALM      29.92S FOG
EDEN PRAIRIE   PTCLDY    70  66  87 S6        29.89F
SOUTH ST PAUL  PTCLDY    69  67  94 SE3       29.91F FOG
LAKE ELMO      FAIR      68  68 100 S6        29.93S FOG
$$
MNZ001>005-007-008-013>017-022>024-027-028-011100-
   Northwest Minnesota

CITY           SKY/WX    TMP DP  RH WIND       PRES   REMARKS
BEMIDJI        FOG       54  54 100 CALM      29.90S VSB 1/4
HALLOCK        PTCLDY    48  46  93 CALM      29.84S
ROSEAU         PTCLDY    54  48  82 CALM      29.85S
WARROAD        PTCLDY    55  52  88 S6        29.86S
THIEF RVR FALL   N/A    N/A N/A N/A S3        29.88R VSB 3/4
CROOKSTON      PTCLDY    54  52  94 SE7       29.88S
FOSSTON        PTCLDY    55  54  94 S3        29.90S FOG
DETROIT LAKES  FOG       61  59  94 CALM      29.92S VSB 1/4
MOORHEAD       MOCLDY    57  57 100 CALM      29.89S
PARK RAPIDS    FOG       58  56  93 CALM      29.91S VSB 1/4
MAHNOMEN       FAIR      58  57  99 S3        29.89S
$$
MNZ006-009>011-018-025>026-011100-
   North Central Minnesota

CITY           SKY/WX    TMP DP  RH WIND       PRES   REMARKS
BAUDETTE       MOCLDY    54  51  90 CALM      29.86S
FLAG ISLAND    PTCLDY    61  54  77 SW12      29.83R
INTL FALLS     FOG       53  53 100 SW3       29.87S VSB 1/2
WASKISH        FOG       52  52 100 CALM      29.89R VSB 1/4
BIG FORK       FOG       55  55 100 CALM      29.91R VSB 1
LONGVILLE      MOCLDY    63  63 100 CALM      29.90S FOG
GRAND RAPIDS     N/A     64  63  94 CALM      29.91R
CRANE LAKE     MOCLDY    55  55 100 CALM      29.89S
ORR            MOCLDY    63  59  88 CALM      29.87S
WALKER         FOG       60  60  99 CALM      29.91R VSB 1
$$
MNZ012-019>021-037-011100-
   Northeast Minnesota

CITY           SKY/WX    TMP DP  RH WIND       PRES   REMARKS
DULUTH         CLOUDY    70  67  90 W6        29.89S FOG
ELY            FOG       66  64  94 CALM      29.90S VSB 3/4
HIBBING        FOG       62  62 100 CALM      29.90R VSB 3/4
EVELETH        FOG       63  63 100 CALM      29.91S VSB 1/2
DULUTH HARBOR  CLOUDY    72  70  94 SW5       29.87S
TWO HARBORS    CLOUDY    72  66  83 CALM      29.87R HAZE
SILVER BAY     CLOUDY    68  66  94 CALM      29.87S FOG
GRAND MARAIS     N/A     60  59  96 CALM      29.86S
G MARAIS ARPRT LGT RAIN  66  63  88 CALM      29.92S
$$
MNZ029>031-032-039>041-046>048-054>057-064-011100-
   West Central Minnesota

CITY           SKY/WX    TMP DP  RH WIND       PRES   REMARKS
FERGUS FALLS   CLOUDY    64  64 100 NE3       29.90R
WHEATON        CLOUDY    61  59  94 CALM      29.92R
MORRIS         CLOUDY    66  64  94 CALM      29.89S FOG
ALEXANDRIA     MOCLDY    66  66 100 NE3       29.92S FOG
ELBOW LAKE     FAIR      66  65  97 CALM      29.90R
WADENA         MOCLDY    61  61 100 CALM      29.90S FOG
GLENWOOD       CLOUDY    68  66  94 N3        29.91S
APPLETON       CLOUDY    68  64  88 NW3       29.88S
BENSON         FOG       64  63  94 CALM      29.89S VSB 1/2
ORTONVILLE     CLOUDY    68  64  88 NW2       29.90R
MADISON        CLOUDY    66  64  94 NW3       29.89R FOG
WILLMAR        FAIR      70  70 100 CALM      29.91R FOG
$$
MNZ033>034-036-042>043-049>051-058-059-011100-
   Central Minnesota

CITY           SKY/WX    TMP DP  RH WIND       PRES   REMARKS
ST CLOUD       CLOUDY    69  67  93 CALM      29.89R
SAUK CENTRE      N/A     67  67  99 CALM      29.91S FOG
PAYNESVILLE    CLOUDY    69  68  97 CALM      29.90S FOG
AITKIN         HAZE      64  57  77 CALM      29.89S VSB<1/4
PINE RIVER     FOG       61  61 100 CALM      29.94S VSB 1/2
BRAINERD       MOCLDY    67  65  93 NW3       29.90S FOG
STAPLES        FOG       63  63 100 CALM      29.91R VSB 3/4
LONG PRAIRIE   FAIR      64  64 100 CALM      29.92S
LITTLE FALLS   MOCLDY    66  64  94 CALM      29.91R FOG
LITCHFIELD     MOCLDY    70  70 100 CALM      29.90S
BUFFALO        MOCLDY    69  65  88 S3        29.90S
MAPLE LAKE     MOCLDY    69  67  94 CALM      29.90S
$$
MNZ037-044-045-052-053-011100-
   East Central Minnesota

CITY           SKY/WX    TMP DP  RH WIND       PRES   REMARKS
PRINCETON      MOCLDY    70  66  88 CALM      29.89S
MORA           LGT RAIN  68  64  88 CALM      29.91S
CAMBRIDGE      MOCLDY    73  63  68 S3        29.88S
RUSH CITY      MOCLDY    69  67  93 S3        29.90S
MOOSE LAKE     CLOUDY    68  66  94 CALM      29.88S FOG
HINCKLEY       FAIR      68  68 100 CALM      29.90S FOG
CLOQUET        CLOUDY    70  66  88 SW3       29.90S
MCGREGOR       MOCLDY    68  64  88 CALM      29.90S
$$
MNZ071>073-080-081-089-090-097-098-011100-
   Southwest Minnesota

CITY           SKY/WX    TMP DP  RH WIND       PRES   REMARKS
MONTEVIDEO     MOCLDY    68  64  88 CALM      29.90S FOG
GRANITE FALLS  MOCLDY    67  66  99 CALM      29.90S FOG
CANBY          CLOUDY    67  65  93 CALM      29.90S
MARSHALL       CLOUDY    70  64  83 NE3       29.90F
REDWOOD FALLS  MOCLDY    68  66  93 CALM      29.89S FOG
OLIVIA         MOCLDY    68  64  88 S3        29.89S
PIPESTONE      MOCLDY    66  64  94 CALM      29.91S FOG
WINDOM         PTCLDY    68  64  88 CALM      29.92S
WORTHINGTON    CLEAR     66  63  88 S6        29.92S
JACKSON        PTCLDY    66  64  94 S7        29.93S
TRACY          MOCLDY    70  67  89 SW8       29.90S
SLAYTON        PTCLDY    65  65 100 CALM      29.92F FOG
$$
MNZ065>067-074>077-082>085-091>093-011100-
   South Central Minnesota

CITY           SKY/WX    TMP DP  RH WIND       PRES   REMARKS
MANKATO        PTCLDY    66  63  88 S8        29.92S
NEW ULM        PTCLDY    64  64 100 S5        29.90S
ST JAMES       PTCLDY    66  64  94 SE5       29.92S
FAIRMONT       PTCLDY    63  57  82 S5        29.92S
GLENCOE        MOCLDY    68  67  97 CALM      29.90S
FARIBAULT      PTCLDY    66  64  94 CALM      29.93F FOG
OWATONNA       CLEAR     68  64  88 SE8       29.94S FOG
WASECA         PTCLDY    63  61  94 SE3       29.94F FOG
ALBERT LEA     CLOUDY    68  68 100 CALM      29.95S FOG
$$
MNZ078>079-086>088-094>096-011100-
   Southeast Minnesota

CITY           SKY/WX    TMP DP  RH WIND       PRES   REMARKS
ROCHESTER      FOG       65  65 100 S5        29.96F VSB 1/4
RED WING       CLEAR     66  66 100 CALM      29.92S FOG
STANTON        CLOUDY    68  65  90 S3        29.92S FOG
DODGE CENTER   FOG       66  64  94 CALM      29.96S VSB 1/4
WINONA         PTCLDY    70  68  94 CALM      29.95S FOG
AUSTIN         FOG       68  66  94 S3        29.96S VSB 1/4
PRESTON          N/A     67  66  95 S6        29.98S FOG
$$
ABBREVIATIONS USED IN REMARKS
   TC - TEMPERATURES IN CELSIUS
  WCI - WIND CHILL INDEX
   HX - HEAT INDEX
  VSB - VISIBILITY
$$



USA.gov is the U.S. government's official web portal to all federal, state and local government web resources and services.